STARLINK-32846, 62867

Orbit data source: Space-Track

STARLINK-32846, 62867 is a payload satellite owned by SpaceX/Seattle (US) in LEO that was launched on Sat, 01 Feb 2025 UTC via an FALCON 9 launch vehicle from the Air Force Western Test Range (AFWTR). Payload-class satellites include a variety of spacecraft equipped with specific instruments for various scientific and technological missions. These include communications satellites like Starlink; space stations such as the ISS; scientific satellites like the Hubble; Earth observation satellites from companies like Planet Labs, Umbra, and HawkEye 360; GPS; miniature CubeSats for education and research; and military/defense satellites.

Loading next visibility...
Identifier
62867, 2025-022P
Orbit
LEO
Country
Flag of USUS
Related business
Manufacturer
SpaceX/Seattle
Mission
Operational Commercial Communications
Bus & Motor
STARLINK V2M, Unknown motor
Mass
730 kg wet, ~700 kg dry
Launch date (UTC)
2025-02-01 (9 months ago)
Launch vehicle
FALCON 9
Launch site
Air Force Western Test Range (AFWTR)
Object type
Payload
Rocket body
Debris
Shape & HBR
Box + 2 Pan, 17.7 m
Radar Cross Section
33.884 m², Large (>1 m²)

Expand to show TLE details & history
Last TLE update: 8 hours ago

TLE from 8 hours ago
0 STARLINK-32846
1 62867U 25022P   25304.70741183  .00039440  00000-0  13381-2 0  9993
2 62867  53.1600   8.6184 0001293  65.7399 294.3736 15.30166679 42157
Epoch: 2025-10-31T16:58Z
TLE epoch observation values (Epoch: 2025-10-31T16:58:40.382Z)
Latitude
-0.00006°
Longitude
73.70212°
Altitude
475.849 km
Speed
7.629 km/s
True Right ascension
00h 34m 28s
True Declination
0° 00' 00"
Sunlit
Object was in full shadow at epoch
Visualization orbit readout
Latitude
Unknown
Longitude
Unknown
Altitude
Unknown
Speed
Unknown
Apparent Right ascension
Unknown
Apparent Declination
Unknown
Sunlit
N/A
Visualization observer readout
Local Sidereal Time
21:01:46
Azimuth
Unknown
Elevation
Unknown
Doppler factor
Unknown
Orbital elements
Apogee altitude
476.457 km
Perigee altitude
474.685 km
Semi-major axis
6,853.708 km
Eccentricity
0.00013
Inclination
53.16°
RAAN
8.6184°
Arg. of periapsis
65.7399°
True anomaly
294.3601°
Mean anomaly
294.3736°
Eccentric anomaly
294.36685°
Mean motion
3.82521 °/min
Orbital period
94.11 mins
BSTAR
0.0013381
Loading maneuver chart data...
Computing Atmospheric mass density...
Loading historical data...
Loading historical data...
Loading historical data...
Loading historical data...
Loading historical data...
Loading historical data...
Loading historical data...

Documentation

Showing up to 5 results
|